Location: Bemmer
(51.5498°N, 5.6249°E)
Time: 13:11:53
(UTC+00:00)

Cosmos 1470 Rocket - Pass Details

Date: 03 March 2021
Orbit: 602 x 635 km, 82.5° (Epoch: 11 April)

Event Time Altitude Azimuth Distance (km) Brightness Sun altitude
Rises 18:36:17 0° 186° (S) 2,918 7.0 -12.4°
Reaches altitude 10° 18:38:31 10° 186° (S) 2,013 6.2 -12.7°
Maximum altitude 18:43:00 83° 99° (E) 643 3.5 -13.4°
Drops below altitude 10° 18:47:28 10° 12° (NNE) 2,015 6.1 -14.1°
Sets 18:49:42 0° 12° (NNE) 2,922 7.0 -14.5°
